Wind_Speed
2 3 3 3 4 6 7 2 1 1 1 2 5 4 7 8 7 9 8 2 2 4 5 6 9 12 13 11 14 14 11 7 3 3 2 6 19 27 28 32 35 34 32 31 32 31 29 26 24 23 22 21 20 20 20 19 19 19 19 19 19 19 18 17 17 15 14 14 14 13 12 12 12 12 12 12 12 11 10 9 9 10 10 10 11 12 14 15 14 14 13 13 12 13 12 11 12
0 3 7 8 7 3 3 1 0 2 2 3 6 6 8 8 6 8 5 2 4 3 6 9 10 15 19 14 15 16 14 11 9 7 7 18 24 24 30 34 35 34 31 31 32 31 29 26 25 23 22 21 20 20 20 19 19 18 18 18 18 18 18 17 16 15 13 13 14 13 13 13 13 12 12 12 11 10 9 8 8 8 9 10 11 12 14 13 13 12 12 12 12 11 11 10 11
3 5 7 8 6 3 2 1 1 2 2 4 7 6 7 8 4 2 4 6 4 6 7 10 11 10 15 16 15 14 9 9 12 9 8 19 18 17 29 33 35 34 32 31 31 31 29 27 25 23 22 21 20 20 19 19 19 18 18 18 18 18 17 17 16 15 13 12 14 14 14 13 13 12 12 12 11 11 10 9 9 9 9 10 10 11 12 11 11 11 11 11 11 11 10 10 10
7 5 6 5 2 1 1 0 3 2 2 5 6 5 5 4 4 4 5 6 5 6 5 8 9 7 14 16 11 11 9 7 11 9 6 13 17 21 28 31 34 33 31 30 30 31 29 27 25 23 22 21 21 20 19 19 19 19 18 17 17 17 17 17 16 15 13 12 14 15 14 13 13 12 12 13 13 12 11 10 10 9 9 9 10 10 10 10 10 10 10 10 10 10 9 9 9
7 5 7 5 1 0 0 1 2 3 4 5 5 4 6 3 5 6 3 5 5 5 5 7 5 6 13 11 5 5 5 6 9 12 11 16 24 26 27 31 33 31 29 29 30 30 28 27 25 24 22 21 21 20 20 19 19 19 18 17 17 17 17 16 16 15 14 14 15 15 15 14 14 13 13 12 12 11 10 9 9 9 9 9 9 10 10 8 8 10 10 10 10 9 8 8 8
6 6 7 5 2 2 0 2 3 3 7 7 6 5 5 3 3 4 3 4 5 5 6 8 8 10 9 7 7 5 3 6 8 13 16 21 27 28 29 31 31 28 27 27 30 29 28 26 24 24 22 22 21 20 20 19 20 19 18 18 17 17 16 16 16 15 15 15 15 15 15 15 14 13 13 12 11 10 9 8 7 7 8 8 9 9 9 8 9 10 10 9 8 6 6 5 6
5 5 3 2 2 2 0 3 4 5 8 10 9 6 5 1 3 2 2 3 5 4 6 9 12 13 6 5 6 10 8 12 9 15 23 26 27 28 29 29 28 26 25 27 29 29 27 26 25 23 22 21 20 20 19 19 19 19 18 18 18 17 16 16 16 16 16 16 16 15 14 14 13 13 12 11 10 9 8 7 6 6 7 8 9 9 8 9 10 10 9 7 5 4 4 3 3
8 4 1 1 1 1 2 4 5 5 8 11 10 7 8 4 4 2 3 3 1 1 7 12 14 13 6 8 6 7 12 17 18 23 29 29 27 26 27 28 27 25 25 27 29 28 26 25 24 23 22 21 20 19 19 19 19 19 18 18 18 17 17 16 16 16 16 16 15 14 13 12 12 12 11 10 9 8 7 7 6 6 7 8 8 8 7 8 9 8 6 5 4 3 3 3 2
8 4 1 1 1 2 3 4 6 7 10 12 13 10 7 2 3 2 3 3 0 1 7 13 14 11 6 12 8 2 9 17 25 27 27 25 20 18 19 22 24 25 25 28 29 27 26 25 24 23 22 20 20 19 19 19 19 19 19 18 18 17 17 16 16 16 15 15 14 13 12 12 12 11 10 9 8 8 7 6 6 6 7 7 7 8 6 7 7 5 4 4 3 3 4 4 3
4 4 1 1 2 3 4 5 6 7 11 12 14 11 4 3 3 2 2 4 3 5 10 14 14 13 10 10 6 1 5 14 25 24 21 20 15 12 13 18 22 25 27 28 29 27 26 25 24 23 21 20 19 19 19 19 19 19 19 19 18 17 17 16 16 15 14 13 13 12 11 11 11 10 10 8 7 6 6 6 6 6 7 7 7 7 6 6 6 5 5 5 4 4 5 5 4
1 3 2 1 2 4 5 5 7 7 9 9 13 11 6 6 5 4 4 3 4 4 10 14 12 13 11 7 3 1 6 16 23 20 18 18 17 17 17 20 19 22 28 29 28 27 26 24 23 22 21 20 19 19 19 19 19 19 18 18 18 17 16 16 15 14 13 12 12 11 11 10 9 9 8 7 6 5 5 6 7 7 7 7 8 8 7 6 5 6 6 6 5 5 7 7 6
2 3 1 2 3 4 5 5 7 8 7 6 9 8 3 7 4 5 5 2 3 4 2 9 8 10 9 5 2 2 9 14 17 18 19 19 19 20 21 21 18 19 25 28 28 26 25 24 23 21 20 20 19 19 18 18 18 18 18 18 18 17 16 15 15 14 13 12 11 10 10 9 8 7 7 6 5 5 4 5 6 7 7 7 8 7 6 6 6 6 7 6 6 7 9 7 6
3 3 1 3 4 4 5 6 8 8 5 4 5 5 5 7 5 3 4 3 5 6 1 11 11 8 7 4 2 2 7 10 14 19 20 20 19 20 21 20 19 17 19 23 27 25 24 24 22 21 20 19 18 18 18 17 17 18 18 18 18 17 16 15 14 14 13 12 11 10 9 9 8 7 7 6 5 5 4 4 5 7 7 6 8 7 6 6 6 6 6 6 7 8 8 7 6
4 3 2 3 4 4 5 5 6 6 4 5 3 4 4 4 4 5 7 6 7 5 7 13 11 9 6 3 2 3 6 12 18 22 23 23 21 21 21 20 20 19 18 20 25 24 24 23 23 21 20 19 18 18 17 17 17 17 17 17 17 16 15 15 14 13 12 11 10 10 9 9 9 8 8 7 6 5 4 4 5 6 7 6 7 6 6 6 6 6 6 6 6 6 6 5 5
5 3 2 3 4 4 4 6 6 6 6 4 2 3 2 3 4 7 6 3 5 4 8 9 7 7 7 8 4 6 10 17 21 24 25 24 23 22 21 20 20 22 25 25 24 24 23 23 23 22 20 20 19 18 17 16 16 17 17 17 16 15 15 14 13 12 12 11 10 9 8 8 8 7 7 7 7 7 5 4 4 5 6 6 6 6 6 6 6 5 5 6 6 5 4 4 4
4 2 1 2 4 5 4 6 6 5 6 2 4 6 5 4 4 3 4 3 3 4 7 3 3 6 12 11 10 15 20 23 23 24 25 25 24 21 20 21 21 24 27 26 24 22 23 24 23 22 21 20 19 19 18 17 16 16 16 16 15 15 14 13 13 12 11 10 10 9 9 9 8 8 7 7 7 7 6 5 4 5 6 6 6 6 6 5 5 4 4 5 6 5 4 3 3
3 3 3 3 4 5 4 5 5 4 3 4 6 7 6 4 5 3 3 6 1 4 10 5 3 7 11 11 19 27 27 26 24 25 25 23 22 19 20 22 22 23 24 23 22 22 22 24 23 22 21 20 19 18 18 18 17 17 16 16 15 15 14 13 13 12 11 10 10 10 10 9 8 8 7 7 7 7 8 7 5 6 6 7 7 7 6 6 6 5 5 5 5 5 4 3 3
3 2 3 4 5 5 6 8 6 2 1 5 5 6 6 5 5 4 4 4 1 4 11 10 10 9 13 20 28 30 29 26 25 26 22 19 19 18 18 19 20 21 23 22 22 23 24 23 23 22 20 20 19 18 18 17 17 17 16 16 15 14 14 13 12 12 11 10 10 10 10 8 7 7 7 7 7 7 8 8 6 6 6 7 7 8 7 7 7 6 6 6 6 4 3 3 3
4 2 3 5 6 7 9 11 7 3 2 4 5 6 4 4 5 3 3 4 4 6 10 12 14 13 17 23 26 28 28 24 23 23 19 15 14 11 12 16 18 20 23 24 23 23 25 25 23 22 20 20 19 18 18 17 17 17 16 16 15 14 13 12 13 13 12 12 11 11 9 7 7 7 7 7 7 8 8 8 7 7 7 7 8 8 8 7 6 6 5 5 6 5 4 4 3
5 3 3 5 6 8 11 12 9 4 2 5 6 5 3 4 4 1 3 6 7 5 8 10 13 14 16 17 21 26 25 22 21 20 19 17 13 9 7 9 14 19 24 26 25 24 25 25 23 21 20 20 20 18 17 17 17 17 17 17 16 15 14 13 14 14 14 12 12 11 9 8 7 6 6 6 6 8 8 8 8 9 8 8 8 8 8 7 6 5 5 5 6 6 5 5 4
4 5 6 6 6 9 11 11 7 4 5 6 5 6 5 5 3 1 2 3 5 4 7 12 14 17 18 17 18 20 21 18 17 19 19 16 16 15 11 9 10 15 23 25 25 24 25 24 22 21 20 20 20 18 18 17 17 18 18 17 17 17 16 15 15 15 14 13 12 11 10 9 7 6 6 6 7 8 9 9 10 9 8 9 8 8 7 7 6 5 5 5 6 6 5 5 4
3 5 8 8 8 9 11 10 4 4 5 6 5 6 4 5 3 1 0 1 0 1 8 15 16 16 17 17 15 16 17 15 15 17 16 15 16 16 14 13 10 12 18 23 25 24 23 22 21 21 20 20 20 19 18 17 17 19 19 17 17 17 16 16 16 15 15 14 13 12 11 9 8 6 6 8 8 8 10 10 10 9 8 9 9 7 6 6 6 5 5 4 5 5 5 5 4
5 5 7 9 10 9 9 9 5 2 2 3 3 4 4 5 4 3 1 4 6 6 12 15 14 13 12 12 11 12 14 13 13 17 19 17 18 18 15 17 16 18 19 21 23 23 21 21 22 21 21 20 19 18 18 16 17 19 19 16 16 17 16 16 17 16 16 14 13 13 11 9 8 7 7 9 9 10 12 11 10 10 10 9 9 9 8 7 6 5 5 4 3 5 5 4 5
7 6 6 9 9 10 9 7 7 3 2 1 3 5 6 6 4 4 2 10 13 15 18 16 13 13 12 10 8 8 8 9 11 17 20 20 22 22 20 22 20 24 20 21 21 22 22 21 22 22 21 21 19 18 18 17 16 18 17 15 14 16 16 16 15 15 15 13 13 12 10 10 10 7 8 9 9 11 13 12 11 10 11 11 10 10 10 8 7 7 7 6 4 6 6 6 8
8 8 8 9 8 10 9 8 9 5 2 1 3 5 8 8 3 4 3 14 15 17 19 17 16 13 12 10 8 8 8 8 11 13 14 13 20 21 18 20 18 26 20 24 24 23 22 22 22 21 20 20 19 18 18 18 16 16 16 15 14 15 15 14 13 13 12 11 11 11 9 10 10 8 9 10 10 12 13 12 10 10 10 10 10 10 10 9 8 8 7 6 5 7 7 7 10
7 9 7 6 6 8 10 10 8 5 3 3 4 7 8 7 3 5 2 15 16 17 18 16 16 13 12 10 8 8 8 9 10 11 13 9 11 12 13 15 12 17 19 27 27 25 23 23 22 20 20 20 19 18 16 16 15 15 15 15 15 15 16 14 13 12 10 10 11 11 10 9 9 8 9 9 10 11 12 11 9 9 9 9 9 10 11 9 8 8 7 6 6 6 7 8 9
5 5 4 4 6 7 9 9 5 5 5 6 5 6 9 8 4 5 3 16 16 18 18 15 15 12 11 9 8 9 9 10 11 12 12 10 10 6 5 8 3 3 13 24 21 21 26 24 22 19 19 19 18 16 14 14 14 13 14 14 14 14 15 14 13 12 10 9 10 10 9 9 8 9 9 9 9 10 10 10 9 8 8 9 9 9 10 9 8 9 7 6 6 7 9 8 5
8 6 3 5 6 7 8 7 5 6 4 7 7 7 10 7 5 7 7 16 16 18 17 15 15 12 11 10 9 8 8 11 15 14 8 7 11 8 4 11 11 9 3 12 11 19 28 23 20 19 19 19 17 15 12 13 14 13 12 12 12 12 13 12 12 12 11 9 9 9 10 10 10 10 10 10 10 10 10 10 9 8 7 9 9 8 9 9 8 8 7 7 9 10 9 7 4
8 8 4 5 6 8 9 7 7 7 3 6 6 6 9 6 7 8 11 15 15 17 15 15 13 11 11 10 9 7 8 11 14 14 10 10 9 10 11 15 15 8 13 8 16 23 30 26 25 20 19 21 18 16 12 12 15 13 12 11 9 10 11 12 13 13 12 10 9 10 11 12 11 11 11 11 10 10 10 9 8 9 8 8 8 8 9 9 7 6 6 9 11 11 9 8 6
6 6 3 3 5 7 9 7 9 9 6 7 5 4 7 7 10 7 15 16 16 15 12 13 11 10 9 8 9 7 7 8 10 12 14 15 11 11 16 16 17 6 12 14 24 24 28 26 24 22 21 21 18 17 13 12 16 14 12 10 9 9 8 10 13 14 13 11 9 9 11 12 11 11 11 9 9 10 9 9 8 9 9 8 9 10 11 10 6 5 7 9 11 10 9 9 7
3 4 3 3 3 7 7 8 11 10 8 8 7 4 6 8 10 8 17 17 18 14 11 12 11 10 9 7 9 7 6 7 11 16 16 18 17 15 19 21 20 15 11 19 24 22 24 23 22 20 19 18 18 18 14 14 16 15 13 10 9 8 8 10 13 13 12 12 10 9 9 10 10 10 10 8 9 11 11 9 8 9 9 9 10 11 13 10 7 7 8 8 8 7 5 5 5
3 2 5 3 4 8 8 10 14 12 7 9 9 4 6 8 7 9 14 16 18 14 12 13 12 13 11 8 8 7 5 6 12 17 18 22 23 22 25 26 23 20 16 22 21 22 22 21 21 19 18 18 18 18 15 17 18 17 13 9 8 7 8 12 12 10 10 11 10 8 7 7 8 8 8 8 9 10 10 9 8 8 9 9 9 10 13 12 8 8 8 7 6 3 3 2 6
3 4 5 4 6 9 7 9 13 12 6 9 10 4 2 5 3 9 9 14 18 14 12 12 13 13 12 9 8 8 6 6 8 12 19 24 24 26 30 26 24 23 21 22 21 23 22 22 21 19 19 19 19 18 16 18 18 16 14 11 11 8 8 11 12 13 13 11 8 7 5 6 7 7 7 7 8 9 9 9 8 8 9 9 8 9 13 14 10 9 8 7 6 5 5 4 6
3 4 6 6 7 7 4 5 9 11 7 8 8 5 2 4 3 9 5 9 15 14 11 11 12 11 10 10 8 8 7 7 8 11 18 21 20 24 26 22 24 25 21 20 21 22 22 22 20 20 20 19 20 18 16 16 15 15 15 14 15 15 12 11 12 14 14 13 11 9 9 9 8 7 8 8 9 10 10 10 9 9 10 9 8 8 11 14 12 10 9 8 7 7 7 6 6
4 4 5 5 7 5 6 6 7 11 9 7 7 6 5 7 3 8 7 7 12 14 12 10 11 11 10 11 9 8 7 7 7 12 20 21 21 22 20 21 27 26 22 20 20 21 22 21 20 21 21 21 21 18 17 17 15 15 15 14 16 19 17 15 15 13 12 11 11 11 10 10 9 8 9 7 7 8 8 8 7 8 9 8 8 7 9 13 12 11 9 9 8 8 8 7 7
5 6 4 5 6 5 6 9 8 10 8 6 7 6 6 6 6 8 9 7 12 15 12 8 9 10 10 10 10 10 9 8 9 15 22 23 24 21 19 25 29 26 24 22 21 21 22 21 21 21 22 22 21 19 18 18 17 16 16 16 17 17 18 18 18 16 14 13 12 11 10 9 8 8 9 7 6 5 2 2 4 6 7 7 8 7 7 10 11 12 10 9 9 9 9 9 7
5 6 6 7 8 7 1 10 8 6 7 4 3 4 6 5 7 8 7 8 12 16 13 10 10 8 9 11 12 14 12 11 13 18 22 23 25 22 21 27 29 27 26 24 23 23 22 22 21 21 22 22 21 21 20 18 18 18 17 18 18 17 18 18 17 15 15 14 14 13 12 11 9 8 7 6 4 4 4 2 2 4 6 7 7 7 7 8 9 10 9 9 9 9 10 9 8
5 4 5 7 7 7 4 8 4 5 7 2 4 2 5 4 4 6 5 9 10 15 14 12 12 9 9 10 13 13 10 10 13 15 18 22 24 21 22 28 29 29 28 26 25 24 22 21 21 22 22 22 22 21 20 19 18 18 17 18 19 19 17 15 13 12 12 11 12 13 11 10 9 7 7 5 4 4 4 3 2 2 2 4 5 4 6 8 8 8 8 9 11 9 8 8 8
4 4 5 5 4 5 6 6 6 6 4 2 5 5 6 6 6 6 3 8 8 13 16 15 15 11 10 10 12 12 10 11 12 12 15 20 23 21 23 27 29 29 28 27 26 24 23 21 20 21 21 22 20 17 18 19 17 17 18 19 22 20 17 15 15 15 14 13 13 12 12 12 10 8 9 8 7 6 5 5 4 4 3 1 3 4 4 6 7 8 8 10 11 8 7 7 7
3 2 3 5 5 3 4 3 4 5 3 1 3 6 6 6 6 7 2 4 4 7 12 13 14 13 12 11 13 14 12 12 14 13 12 16 20 20 22 26 28 29 28 27 26 25 23 22 21 21 21 20 17 17 19 19 17 19 21 22 23 22 20 19 17 16 15 15 15 13 13 13 12 11 12 10 9 8 6 5 5 5 5 3 1 3 5 5 5 7 8 8 7 7 7 7 7
4 4 3 5 7 3 1 3 2 4 4 2 5 6 5 5 5 6 5 3 6 5 8 9 9 10 13 12 12 14 14 13 14 14 11 12 16 18 22 26 27 29 27 26 27 26 24 23 22 22 21 18 17 19 21 20 21 23 25 24 24 23 22 20 18 17 16 16 15 14 13 12 12 13 14 13 11 11 10 7 6 7 8 7 5 5 5 4 4 4 6 7 7 8 7 6 6
4 5 6 7 8 6 1 2 3 5 5 3 5 4 5 6 5 7 6 2 7 6 7 7 5 8 13 13 12 12 11 11 13 14 12 11 14 18 21 24 26 27 27 26 26 26 24 24 23 22 21 19 19 20 20 21 22 24 24 24 24 23 21 19 18 20 18 16 15 14 13 12 11 12 12 12 12 13 12 9 8 9 10 11 9 8 8 8 9 8 6 5 6 8 8 6 6
3 4 5 5 8 7 3 2 3 3 2 3 5 5 3 6 6 7 5 3 6 5 6 6 5 9 12 12 11 11 10 10 12 14 13 12 15 17 19 22 25 26 26 25 25 26 25 24 23 23 22 20 21 22 21 21 21 21 20 21 23 23 21 19 19 20 18 16 16 16 15 14 13 13 12 11 11 12 12 11 9 11 13 15 13 13 12 10 10 10 11 10 7 6 7 7 7
3 5 4 5 6 6 3 2 1 3 3 2 2 5 2 4 6 7 6 4 3 4 7 7 5 7 11 13 12 12 11 10 11 11 12 12 14 18 20 23 26 27 27 25 24 26 25 25 24 23 22 21 21 22 21 21 21 20 20 21 22 22 22 21 20 19 17 16 18 17 15 15 13 13 13 11 10 10 11 15 14 14 14 13 13 14 14 13 12 11 11 12 11 8 7 7 8
5 6 4 2 4 6 6 4 3 2 1 3 4 1 2 3 6 7 8 4 3 6 6 7 5 5 9 12 11 8 8 8 9 9 10 10 14 19 23 25 26 28 28 26 26 26 24 25 25 22 22 22 21 23 22 21 22 21 22 23 22 23 22 22 20 19 17 17 19 17 15 15 14 13 13 11 10 9 9 14 17 16 14 12 11 12 12 12 13 13 12 12 13 12 9 9 10
6 4 2 2 3 5 6 5 3 3 4 2 5 1 1 4 6 4 4 3 5 6 6 7 9 9 11 11 10 9 9 10 10 11 11 13 19 23 23 24 25 26 27 27 27 25 23 25 27 23 22 24 23 22 23 22 23 24 24 24 25 25 24 21 21 20 19 19 18 16 15 15 14 13 12 12 11 10 9 11 15 16 14 12 12 13 13 12 12 12 12 11 12 13 12 11 11
4 1 2 4 2 2 4 3 1 4 2 4 5 3 3 3 5 3 1 3 5 5 5 7 10 9 9 9 8 8 8 8 7 8 8 12 19 22 24 24 23 23 25 26 26 25 22 23 27 24 22 26 26 24 25 25 25 25 24 25 27 26 25 24 23 22 20 19 18 16 16 15 14 12 12 11 11 11 11 11 13 15 14 12 12 14 13 12 12 12 12 11 10 11 11 12 12
3 3 3 5 4 3 2 4 4 3 3 4 2 3 3 3 4 4 2 3 5 7 7 8 10 9 8 8 8 8 8 7 7 6 4 6 10 14 19 21 20 21 22 24 24 25 23 21 26 27 24 27 29 27 27 27 27 26 24 26 27 25 25 25 24 23 21 20 19 18 17 15 14 13 12 11 11 12 12 12 13 13 12 12 12 12 11 10 11 11 11 11 9 9 9 11 12
2 3 4 4 3 4 2 3 2 1 4 4 3 5 1 4 5 4 1 3 3 5 7 8 10 10 9 9 8 9 9 8 8 7 6 5 5 6 14 16 17 20 22 24 24 24 23 22 25 27 26 29 31 30 29 29 29 27 24 26 26 24 26 24 23 23 21 20 20 19 17 15 14 13 11 11 12 13 12 10 11 11 11 12 12 10 9 9 9 10 11 11 10 9 9 10 11
3 3 3 3 2 0 1 2 1 1 3 5 3 3 1 3 3 5 3 3 6 8 9 9 9 9 8 9 10 11 10 9 7 6 6 6 5 3 10 16 17 19 22 24 24 23 23 24 24 22 21 26 31 32 30 29 30 26 23 26 26 25 26 23 22 22 20 19 19 17 15 14 13 13 11 11 12 12 11 8 8 10 10 12 12 10 9 9 8 9 10 10 10 10 9 9 10
3 4 5 5 4 4 2 1 1 2 3 4 2 2 1 2 3 6 1 6 9 10 10 8 9 9 9 10 11 11 9 8 7 6 6 5 6 8 4 12 19 21 22 24 23 23 23 24 26 23 17 18 26 31 30 28 30 26 21 24 26 25 24 22 20 21 19 18 18 16 15 13 12 11 10 10 11 11 9 8 7 8 9 10 10 10 10 8 6 7 9 10 10 10 10 10 10
4 1 4 3 4 5 3 3 5 4 1 2 2 2 3 2 4 6 2 7 8 9 9 9 9 9 11 10 9 9 8 7 7 6 5 5 7 12 12 6 13 20 20 20 22 21 21 22 23 23 19 17 23 28 24 23 27 24 18 22 26 23 22 21 19 19 18 17 17 15 15 13 11 11 9 9 10 9 7 7 7 7 7 8 10 10 9 7 5 6 9 10 10 8 8 9 10
3 2 1 4 5 7 4 2 2 3 3 2 2 1 1 0 3 5 2 6 7 8 7 8 9 10 11 9 7 8 7 6 6 5 4 4 8 11 14 15 12 17 21 20 21 21 20 20 21 24 24 17 14 16 14 13 19 18 13 18 23 22 21 20 20 18 16 16 16 14 14 14 12 11 10 9 10 9 7 6 6 6 7 7 9 9 7 6 5 6 8 8 7 6 6 7 7
1 2 3 2 1 5 4 1 1 3 1 3 3 3 2 1 3 4 2 5 6 8 8 9 10 10 11 9 8 8 7 7 6 6 6 6 9 12 13 16 14 12 17 20 22 22 21 20 20 24 24 14 11 19 18 13 14 14 10 13 19 20 19 18 19 18 16 15 16 14 13 14 13 12 11 10 10 9 8 6 5 6 6 6 8 8 6 7 6 5 7 6 6 7 6 5 5
2 5 3 2 2 1 1 1 1 2 2 2 4 3 1 2 2 5 4 4 5 6 9 11 10 10 10 8 8 8 7 6 6 6 7 6 8 12 15 16 16 13 10 10 14 16 18 21 25 30 28 20 19 25 24 18 17 17 15 15 16 17 17 16 16 17 17 16 16 15 13 12 13 12 11 10 9 9 8 7 6 6 5 5 7 8 7 7 8 6 7 7 5 6 5 5 4
2 4 3 2 3 3 2 2 3 3 3 2 3 1 2 2 2 4 4 2 5 4 6 9 10 10 10 8 8 7 6 5 5 6 5 5 8 12 16 18 19 17 15 11 8 6 6 12 22 31 30 24 23 23 23 22 20 20 19 18 16 15 16 16 14 16 19 17 15 15 14 12 11 11 11 9 8 8 8 7 7 7 7 6 6 8 7 7 8 7 7 7 6 7 6 4 4
1 1 2 2 1 2 1 2 0 3 3 1 1 2 3 4 2 4 3 5 6 5 6 7 7 9 9 8 8 7 7 5 4 5 5 5 8 12 15 18 19 20 19 16 15 14 11 8 16 26 27 26 25 21 23 25 20 19 20 18 16 15 14 14 13 14 19 18 14 14 13 11 11 11 10 10 8 7 8 8 8 8 8 8 7 8 9 8 8 8 7 7 6 8 8 6 5
2 2 3 2 2 4 3 4 4 0 3 3 3 1 5 5 2 4 3 5 5 7 9 7 7 9 8 8 8 7 7 6 5 5 5 5 7 11 15 17 18 19 19 18 18 20 20 18 16 20 23 26 25 20 19 21 17 14 17 16 15 13 11 11 11 12 16 17 14 13 10 9 11 10 9 9 9 9 9 9 9 10 10 10 9 9 10 10 9 9 9 9 8 9 9 8 8
Wind_Direction
295 323 336 327 311 323 305 225 103 280 178 257 258 248 252 239 241 274 285 304 26 17 36 67 58 70 83 88 94 73 47 37 44 108 135 121 121 130 137 140 144 147 149 149 148 147 148 149 148 146 144 145 146 146 145 143 142 142 144 144 143 140 134 131 134 131 124 121 122 127 126 119 119 122 122 126 128 129 123 117 115 112 107 100 99 96 93 92 92 91 92 91 91 94 94 96 99
230 326 315 303 292 304 283 180 119 251 171 279 258 233 252 262 270 273 275 57 72 55 47 54 53 77 91 90 87 73 54 48 69 87 99 112 112 120 135 142 146 148 149 150 149 148 148 148 147 145 144 144 144 144 144 143 142 143 145 146 145 141 135 132 134 132 126 122 125 129 129 120 119 123 123 124 126 127 123 121 118 114 109 101 97 95 94 95 93 92 93 94 93 93 93 96 100
277 299 300 294 274 237 287 313 199 227 178 242 257 244 253 264 274 329 55 75 61 54 53 56 51 61 82 76 68 74 79 68 81 89 104 114 110 121 135 143 148 149 150 151 151 149 148 148 147 147 145 143 143 143 143 143 142 143 145 146 145 142 137 134 135 132 127 126 126 130 133 125 123 125 124 124 123 122 118 115 110 106 104 100 98 97 97 95 94 96 98 98 96 94 92 96 101
285 278 282 293 276 210 316 280 194 196 211 242 260 262 268 261 121 92 58 74 57 46 51 69 58 38 72 76 71 79 88 90 99 104 110 117 122 132 137 145 148 149 149 151 152 149 147 148 148 148 146 144 143 144 143 143 143 144 145 145 144 143 139 135 135 132 129 130 128 130 135 133 131 129 127 126 126 126 122 115 111 111 108 106 104 103 102 99 99 102 103 102 99 94 93 97 101
282 263 265 271 256 241 161 244 215 185 224 242 255 290 306 290 118 114 86 82 78 61 58 91 96 55 65 63 63 82 81 92 103 105 105 116 126 135 142 146 146 147 149 151 152 149 148 148 149 149 146 144 144 144 143 143 143 143 145 144 143 142 140 137 134 131 131 132 129 131 134 136 135 133 131 129 130 129 126 122 121 123 120 119 116 113 110 106 108 108 108 106 103 97 93 98 105
284 283 270 247 248 304 66 260 262 238 239 241 255 288 308 318 57 95 122 102 79 68 67 90 108 90 77 65 55 29 63 115 104 107 115 125 133 140 145 144 144 145 148 152 152 148 147 149 150 149 146 143 143 142 140 139 140 141 143 142 142 142 139 137 132 130 131 131 130 131 133 135 135 134 133 132 131 128 126 125 124 127 126 125 118 112 110 113 115 116 115 108 111 105 95 105 117
271 294 283 217 274 288 187 251 256 263 255 249 251 262 263 191 90 59 42 55 39 32 74 90 104 97 82 99 70 18 71 121 113 119 130 134 138 141 142 142 141 143 147 152 151 148 147 149 149 147 145 143 142 139 135 134 135 138 141 141 140 140 136 133 130 130 130 131 132 133 134 134 133 133 132 131 130 128 127 124 121 124 125 123 117 114 120 130 131 128 121 114 121 113 98 109 126
254 263 302 142 290 246 208 253 251 253 261 263 260 258 253 206 125 77 41 64 42 355 105 106 98 89 59 81 90 15 69 107 114 126 134 136 139 140 141 139 137 140 150 153 150 148 147 149 149 147 145 142 140 135 132 131 132 135 137 138 138 136 133 130 129 130 131 133 134 135 134 133 133 132 130 129 129 128 127 123 119 120 125 127 127 129 136 141 145 142 126 118 122 103 89 84 100
242 228 286 246 227 256 245 251 249 247 254 263 266 262 254 240 63 52 25 45 69 350 101 115 99 95 94 82 89 33 61 97 114 125 134 134 133 134 134 131 134 142 149 151 149 148 148 150 149 148 146 142 138 133 132 130 130 132 133 135 135 133 130 130 131 130 131 133 134 135 133 133 133 131 129 128 127 124 121 120 120 123 130 134 136 139 141 139 149 158 138 126 117 90 70 59 62
222 204 229 262 230 270 264 256 251 249 251 255 262 254 207 145 119 125 27 27 359 21 81 97 94 107 116 92 93 106 60 102 113 115 126 129 123 119 120 120 136 148 148 149 150 150 149 152 151 149 146 143 140 137 136 133 133 134 134 134 133 133 132 133 132 131 132 132 134 133 133 133 132 131 128 127 124 120 116 118 124 131 137 141 138 140 147 139 141 149 133 124 114 89 72 66 70
238 223 189 258 269 262 254 258 258 259 259 261 265 251 180 158 155 116 73 33 355 48 110 95 92 113 108 97 115 169 105 112 111 105 117 130 134 133 133 127 136 149 148 149 150 151 151 152 152 149 148 146 145 142 140 138 138 136 135 135 135 136 135 136 134 134 133 133 136 135 135 133 132 131 128 127 124 120 117 118 125 135 143 145 142 143 152 145 134 130 120 119 112 97 92 89 91
244 262 169 226 237 236 244 258 264 270 277 281 279 277 137 115 85 88 94 96 33 355 155 112 130 129 104 112 130 139 113 110 109 109 119 129 138 139 138 131 128 142 146 148 150 151 152 152 152 150 150 149 148 146 144 142 140 139 137 138 139 139 138 138 137 137 137 138 140 139 141 140 140 139 134 131 128 128 122 120 125 134 141 146 150 151 151 145 134 124 117 118 112 107 104 94 93
210 253 198 235 232 236 256 261 268 279 297 291 288 337 63 91 64 57 67 62 47 352 24 121 141 115 99 121 82 139 125 120 120 118 123 125 131 130 128 125 122 131 136 143 150 152 153 153 153 153 152 152 151 149 147 145 143 142 141 141 142 142 141 141 141 142 143 145 146 145 147 151 155 154 151 146 141 135 128 130 128 132 140 148 156 155 150 141 132 122 116 116 115 117 108 88 82
205 236 209 250 265 263 269 268 280 291 283 265 282 6 37 77 77 66 48 22 16 18 93 117 127 96 99 117 75 210 156 144 135 124 122 120 123 119 122 125 118 128 140 149 155 154 155 157 158 157 156 155 154 152 151 149 147 146 144 144 145 146 146 145 146 148 150 153 154 153 156 163 166 167 165 161 157 150 142 142 136 137 143 151 156 157 154 145 135 124 117 122 126 130 121 96 75
207 236 218 253 280 281 277 268 280 289 272 256 295 336 48 66 75 82 78 25 354 54 93 117 128 99 142 155 168 199 157 146 136 128 124 117 119 117 127 132 122 140 159 163 160 157 157 161 162 161 161 159 157 155 154 152 150 150 148 149 150 151 150 150 153 156 159 161 163 165 169 174 174 177 175 168 166 163 160 152 148 150 148 152 156 161 160 152 146 132 126 134 139 138 130 120 94
214 232 242 268 273 279 274 269 283 285 285 318 15 358 39 48 25 66 122 108 346 25 79 138 167 129 162 166 164 162 149 142 133 130 126 118 116 114 124 132 135 151 163 163 159 158 161 164 163 162 164 163 162 160 158 156 156 156 155 156 156 156 156 157 159 163 166 167 171 174 178 182 180 179 176 174 174 169 167 168 165 163 158 156 160 168 166 163 160 144 140 147 150 143 129 131 125
250 232 244 273 261 268 261 258 269 235 270 356 32 21 27 18 3 7 77 89 8 26 69 69 58 123 153 147 146 148 145 141 136 128 120 116 115 114 122 133 146 154 157 159 157 159 164 166 165 165 166 166 167 165 164 161 161 163 163 164 164 163 163 163 165 169 172 172 176 181 186 189 183 178 173 173 178 178 177 175 174 173 168 164 166 174 175 176 173 165 159 159 162 153 143 141 135
252 207 211 244 242 251 254 251 265 228 356 349 36 52 29 8 11 4 11 57 142 76 76 73 63 78 106 121 136 141 139 137 135 129 123 124 122 122 128 137 150 154 155 157 160 164 167 166 166 167 166 170 170 170 170 168 168 169 170 170 170 170 167 168 170 174 178 179 181 186 192 192 180 178 176 173 178 185 186 176 176 181 176 175 176 180 185 186 184 179 173 169 175 178 178 175 164
228 205 203 223 233 245 256 262 290 338 355 348 36 60 39 6 6 356 353 353 357 69 89 90 85 85 99 117 131 134 135 134 137 137 127 113 103 107 127 143 154 158 157 159 163 168 168 165 167 168 167 172 174 173 174 174 176 175 176 177 175 173 171 174 179 182 186 186 187 191 195 194 184 182 179 176 177 183 188 180 180 188 185 188 189 188 189 188 190 187 179 177 189 205 219 225 220
215 208 234 243 246 258 265 275 299 315 11 24 27 34 26 357 351 350 24 351 344 63 113 114 113 121 120 124 132 135 136 138 140 129 108 96 95 105 132 154 160 162 162 165 168 168 170 168 166 168 167 172 175 176 177 177 180 180 181 183 180 178 175 180 188 189 191 190 193 197 196 194 192 184 176 172 174 179 187 188 189 193 191 195 200 196 190 187 193 196 193 195 207 219 231 244 230
208 192 222 245 256 270 273 282 317 2 31 35 12 4 5 335 329 122 53 346 337 45 137 146 140 139 136 136 137 138 136 135 128 114 112 119 126 133 150 169 172 174 167 167 171 169 170 168 164 166 169 172 173 177 180 179 182 184 184 185 184 181 181 188 194 196 194 193 197 202 199 197 197 186 174 172 176 180 188 197 198 196 192 198 206 200 193 194 197 207 213 211 219 228 232 234 224
225 219 221 236 247 261 275 283 332 47 33 29 7 353 344 309 310 164 202 180 253 44 148 146 143 141 140 140 138 138 134 130 121 120 131 137 135 133 143 156 172 201 186 172 172 168 166 166 164 165 168 171 173 176 178 178 180 184 185 186 187 184 187 195 200 204 200 197 201 207 203 197 196 189 184 186 185 186 193 201 200 196 192 198 207 199 197 204 204 212 218 219 224 228 225 224 241
222 254 235 237 245 252 274 288 309 42 65 43 356 321 315 311 306 263 263 116 112 106 117 122 128 128 123 125 130 136 135 131 126 135 143 144 143 139 147 156 171 211 206 177 172 167 163 167 166 164 166 167 169 169 169 171 175 182 183 186 192 188 192 203 209 213 208 202 204 208 206 196 199 199 195 194 187 191 199 199 197 199 195 195 200 199 205 213 215 221 229 239 223 209 214 231 261
221 247 244 246 255 260 272 284 302 341 64 41 328 319 301 290 292 298 35 102 104 98 100 102 103 101 99 99 106 115 114 108 112 132 142 146 144 143 155 157 176 219 207 171 170 167 165 168 165 164 167 166 165 165 163 163 166 174 180 184 189 187 192 203 210 215 213 206 202 203 199 193 201 200 193 193 187 198 207 203 202 206 201 198 200 203 210 220 227 230 228 235 229 217 223 241 255
231 233 239 245 260 273 282 283 288 305 340 323 302 296 279 272 285 305 87 110 109 103 102 102 100 98 99 98 95 91 84 81 93 111 115 130 140 144 156 153 191 225 194 167 173 168 168 169 165 166 168 168 164 165 163 161 164 167 171 176 179 180 186 195 200 207 213 208 202 200 195 191 197 193 187 189 190 204 216 214 212 212 206 205 208 212 216 222 231 231 222 217 217 219 229 252 252
231 229 234 232 250 278 284 279 272 270 261 196 241 263 265 272 275 277 155 118 115 111 109 109 111 109 108 107 103 97 86 81 79 77 74 92 127 147 161 147 198 222 168 164 176 171 172 166 163 168 166 165 161 161 160 159 165 164 166 174 177 180 181 186 192 196 200 204 206 205 200 195 195 193 187 186 192 208 219 218 217 215 209 209 215 219 219 227 235 228 218 208 205 217 247 268 257
265 253 258 255 252 262 267 270 262 261 253 190 210 253 255 249 218 260 154 127 124 116 113 114 113 108 108 109 102 95 87 82 77 72 67 71 90 122 166 112 108 268 142 160 175 168 172 167 164 168 160 157 156 152 151 151 155 160 169 175 176 183 184 186 192 190 186 193 201 198 196 193 192 195 192 192 198 208 218 217 216 219 212 207 213 217 216 227 232 220 220 224 222 237 257 262 247
295 297 296 288 286 275 274 284 278 274 249 186 201 244 256 241 204 231 159 136 127 117 117 116 114 112 110 106 96 88 86 92 96 95 85 82 100 123 94 79 83 343 341 154 154 148 156 154 146 156 159 156 151 142 145 154 155 155 162 166 167 175 179 179 184 185 183 183 190 192 189 181 181 189 191 196 202 204 215 223 222 223 217 206 208 212 210 216 217 214 223 227 226 241 250 241 235
275 284 299 291 296 281 273 277 268 270 234 189 202 245 262 251 226 215 147 132 118 114 118 116 117 118 119 113 102 96 98 106 107 111 124 121 118 125 101 88 96 331 311 122 125 131 136 131 123 130 145 147 144 137 135 150 155 150 148 150 151 157 168 175 172 175 182 182 187 194 188 181 182 189 193 199 204 206 213 221 224 224 221 212 208 207 202 203 205 209 222 220 223 236 238 232 249
245 263 283 278 294 269 252 241 244 250 226 190 179 246 265 260 245 183 131 129 119 117 122 121 124 122 121 117 111 112 117 122 122 131 138 132 137 130 115 105 113 244 276 120 121 127 127 128 122 118 127 132 133 134 124 130 146 145 133 127 131 137 151 170 169 168 177 184 191 192 186 189 193 195 203 204 203 210 210 210 220 223 218 210 204 198 194 196 198 204 211 214 226 237 238 245 254
274 283 282 235 254 260 239 220 226 229 221 176 155 234 253 262 258 155 133 136 127 126 132 128 131 129 124 121 121 124 133 142 139 145 143 136 145 141 128 127 142 208 220 125 122 126 126 130 128 124 127 125 125 130 121 122 137 137 125 119 130 131 125 144 159 162 167 176 190 194 187 195 197 195 200 194 195 207 208 206 212 214 213 208 202 195 190 187 192 209 213 220 236 239 242 259 233
244 242 274 231 212 257 245 217 212 212 214 158 152 228 253 263 252 150 140 136 128 134 144 142 137 132 132 134 134 132 146 159 148 152 150 146 153 150 140 143 165 195 164 128 128 127 126 131 134 135 133 130 129 128 119 117 124 123 122 131 135 134 126 129 138 141 147 161 177 184 185 198 200 199 198 190 197 205 201 202 208 213 219 220 210 200 194 186 186 208 223 242 245 209 177 186 197
237 197 245 235 213 250 250 215 202 199 189 145 163 215 270 280 191 142 143 133 135 144 150 149 138 133 136 137 141 140 152 167 158 164 159 161 168 160 152 158 173 174 146 134 136 131 131 134 139 142 140 140 136 130 123 120 122 120 121 127 127 138 138 116 113 116 123 139 152 155 161 179 196 207 204 201 210 208 201 200 204 214 220 219 210 204 203 196 190 195 207 227 226 206 200 184 192
282 235 236 246 236 237 214 198 192 183 162 150 186 204 202 270 136 129 143 128 136 148 152 150 138 135 136 133 141 145 154 168 170 172 164 170 179 166 163 168 165 157 146 144 143 139 140 139 143 145 143 142 135 130 127 124 125 124 123 117 111 123 132 111 103 104 103 112 114 110 118 137 165 184 185 197 211 210 213 208 200 208 216 214 208 208 210 204 198 194 194 202 212 223 219 200 202
295 274 244 264 267 233 177 185 196 176 156 149 193 221 222 248 197 141 166 138 126 145 156 151 139 136 137 137 143 147 158 175 178 171 164 167 175 175 173 166 158 154 152 152 149 148 146 145 147 145 141 138 135 133 131 128 126 128 130 123 110 113 120 117 112 107 99 102 98 94 102 115 133 144 148 167 191 196 216 220 209 215 219 218 220 221 217 211 207 200 197 202 213 226 225 221 226
317 307 289 294 296 267 185 169 184 166 147 154 183 216 231 229 209 177 178 146 121 139 149 145 144 143 147 146 145 152 165 180 181 171 168 169 178 186 176 158 155 155 156 156 154 155 151 151 151 147 145 140 138 139 135 133 133 131 130 128 122 117 119 121 120 119 117 113 102 97 99 100 103 106 113 121 131 139 158 219 226 233 232 231 232 229 220 215 214 212 210 214 222 227 226 229 231
338 332 322 324 327 307 151 141 170 135 120 184 203 213 246 241 220 210 180 129 119 137 143 146 155 154 156 154 150 157 166 172 171 171 175 178 184 186 167 156 156 154 156 158 158 159 156 156 154 150 150 146 141 141 139 139 142 140 134 131 132 129 128 125 122 125 124 119 113 108 103 100 97 91 95 95 102 119 110 118 216 245 243 242 235 227 219 210 212 218 220 221 229 230 219 217 215
350 347 331 330 329 315 23 100 124 76 94 260 337 357 288 309 288 259 167 125 132 148 150 155 161 167 172 161 153 157 157 160 165 169 175 179 184 182 162 157 158 155 157 160 162 163 162 161 159 156 155 149 142 143 146 145 147 149 145 141 138 134 135 131 121 122 125 122 118 114 107 107 104 108 120 108 104 134 134 126 150 186 208 230 226 216 212 211 215 217 218 225 229 229 218 210 208
2 -0 342 318 303 320 1 56 76 64 69 298 354 14 312 321 332 315 128 134 157 159 156 162 164 169 180 165 152 156 153 155 163 169 170 171 178 177 162 158 160 159 159 161 164 165 165 165 164 162 158 152 148 153 159 154 153 154 147 146 143 134 132 128 115 111 114 114 115 113 111 110 104 119 140 123 108 127 145 135 130 131 122 180 220 198 189 202 215 210 210 226 226 219 214 210 209
331 306 321 291 287 343 346 347 70 72 71 135 33 13 316 319 350 337 348 130 151 148 144 155 165 172 180 168 151 155 158 159 165 170 169 168 174 173 163 159 160 161 161 161 164 166 167 170 170 166 159 156 155 156 157 153 150 147 140 140 139 131 126 122 115 113 111 110 112 110 111 108 102 113 125 121 113 118 133 142 134 127 111 86 137 176 186 190 202 204 201 209 206 197 204 209 215
299 254 240 264 286 332 5 300 13 39 12 68 67 22 314 320 351 306 307 87 130 140 130 149 170 163 163 160 151 157 164 165 164 167 168 167 170 170 165 161 159 163 164 163 166 168 170 174 175 169 164 165 163 157 154 148 141 137 132 131 130 128 126 123 121 120 113 110 111 111 113 112 107 112 117 119 115 107 114 130 130 119 104 89 96 126 144 128 123 165 188 196 197 193 191 191 203
305 260 234 238 264 286 260 308 31 51 342 320 90 51 298 308 320 277 289 99 156 166 141 161 171 131 144 157 158 161 162 158 160 166 168 163 164 165 164 164 160 163 167 167 169 171 173 177 178 173 170 172 170 165 162 155 148 143 139 134 132 131 131 131 131 127 121 117 114 111 112 110 105 110 118 118 106 98 104 117 134 127 103 98 103 113 118 101 96 103 108 138 185 188 178 168 165
290 268 268 267 269 280 266 297 48 110 257 260 123 118 268 306 309 274 273 253 216 181 120 134 130 114 138 155 157 161 160 156 160 166 167 160 161 162 165 169 168 166 167 168 171 173 175 178 178 176 175 176 174 173 173 168 159 154 151 144 140 139 136 136 136 130 125 119 114 109 104 101 98 101 109 113 102 95 94 98 126 133 111 107 109 108 111 104 98 97 88 85 104 148 159 154 146
235 247 279 312 304 308 303 305 313 201 225 298 131 137 180 287 288 272 282 286 227 149 112 116 118 119 142 156 164 164 163 162 160 163 167 164 164 167 170 174 176 174 170 170 173 173 177 180 179 177 178 180 178 177 179 176 169 161 154 148 145 144 138 135 135 131 125 119 115 114 108 103 101 99 99 103 100 95 90 87 100 113 106 105 109 107 107 105 101 100 94 87 84 96 110 113 122
225 220 213 284 338 346 335 326 297 238 126 317 299 143 159 266 271 275 293 292 149 133 127 117 91 79 115 142 157 144 133 149 155 159 165 167 173 176 176 178 181 181 179 180 180 175 175 177 177 176 181 186 184 182 182 179 173 162 154 152 151 147 141 137 136 131 127 124 121 119 116 110 108 104 102 103 99 94 95 90 90 95 92 90 98 106 110 109 106 102 98 92 87 87 88 93 103
211 213 203 69 38 339 321 312 313 40 80 255 282 331 109 280 273 278 317 279 173 153 153 122 92 84 96 119 143 142 144 158 167 169 166 170 178 182 180 179 180 181 183 188 188 184 177 172 170 174 185 190 190 186 183 179 169 160 160 161 154 148 144 141 139 134 132 132 126 120 121 120 118 116 112 111 107 100 103 99 91 90 89 84 84 92 101 102 102 100 97 97 96 94 92 97 102
169 170 337 36 34 285 284 289 23 65 25 247 245 252 235 275 282 268 306 231 179 136 135 118 100 98 98 105 119 130 142 148 152 161 165 170 176 178 180 180 175 175 181 186 188 188 186 176 166 170 189 195 194 190 184 177 168 164 169 167 158 152 150 147 144 142 140 137 131 127 128 129 126 125 121 117 115 108 106 107 103 98 98 94 85 86 91 92 95 99 99 101 103 103 102 101 101
76 73 42 37 352 333 350 339 41 80 273 257 270 309 253 235 273 266 227 173 149 132 132 121 107 99 89 89 89 89 98 98 99 106 119 151 160 169 178 180 173 171 176 182 186 186 187 183 172 174 192 199 195 191 186 179 172 171 175 170 162 158 155 153 150 149 147 143 139 137 134 131 128 128 123 117 115 111 106 109 113 110 106 102 96 93 92 93 98 100 101 102 102 108 114 111 104
65 73 65 63 332 344 13 334 16 176 244 258 357 19 14 225 255 263 210 80 84 131 131 116 110 103 92 90 81 76 81 78 79 81 76 88 107 158 183 182 172 171 179 183 186 184 181 183 182 182 193 199 196 192 188 184 177 176 176 171 166 162 160 159 155 152 151 146 145 145 143 137 133 134 130 121 118 114 109 108 114 117 114 108 105 99 91 92 93 95 102 101 97 103 115 122 115
150 152 115 126 186 32 318 285 350 262 268 289 322 47 6 285 285 275 240 100 73 89 101 100 104 103 97 92 82 77 78 71 67 66 64 67 65 111 183 188 177 172 180 185 184 180 177 182 190 194 200 202 197 191 189 187 182 179 178 172 167 165 165 162 157 156 154 150 150 151 150 145 139 141 139 131 125 120 118 116 115 119 122 119 114 104 99 100 93 92 98 96 91 93 102 115 120
215 192 153 149 159 151 183 196 142 228 267 306 331 108 285 290 270 279 279 99 85 85 92 90 84 83 85 83 79 80 79 76 71 59 50 44 40 45 96 187 190 179 175 180 181 179 178 182 193 199 204 212 203 192 190 189 184 182 181 174 169 168 168 163 159 160 158 155 155 156 157 154 145 145 147 138 132 132 133 132 127 123 124 129 124 112 108 108 100 96 97 92 87 82 85 95 102
277 274 111 155 179 149 152 179 178 181 205 312 305 195 210 207 258 284 52 90 90 96 100 94 82 80 85 81 77 79 77 79 83 78 61 36 41 43 47 100 174 177 169 172 176 178 179 182 191 194 195 214 213 196 189 188 185 186 185 176 171 168 167 164 161 165 165 160 158 159 165 164 154 152 153 146 143 146 147 140 137 133 128 131 130 124 119 114 106 106 103 94 90 84 79 84 90
294 329 144 214 182 135 119 233 204 100 78 270 239 224 268 3 288 278 155 110 100 107 106 99 94 88 89 85 81 80 73 74 79 95 104 56 48 49 48 63 107 155 168 178 186 192 192 184 187 191 193 208 210 186 180 183 185 190 188 176 172 168 166 165 165 168 170 167 162 161 167 168 164 165 162 155 155 159 161 152 146 147 143 137 135 136 141 136 123 116 116 112 113 115 102 90 90
41 305 255 276 65 106 108 116 9 78 115 254 223 192 201 161 275 278 190 148 137 132 119 103 97 93 92 91 90 85 76 73 69 71 73 53 46 48 50 55 71 123 158 174 188 199 200 193 196 198 197 199 175 168 176 179 176 183 194 188 179 171 167 166 169 171 171 171 168 162 164 170 172 175 172 164 163 169 174 172 165 162 161 158 152 154 162 157 151 145 142 148 152 146 134 125 115
178 244 271 46 76 63 51 108 132 148 169 277 265 224 172 132 249 286 264 192 158 140 126 117 111 106 101 98 99 95 85 74 64 62 60 56 55 52 54 57 57 69 99 140 167 181 185 188 196 196 192 183 169 170 174 172 168 176 195 205 193 180 176 173 173 176 174 174 174 169 167 171 175 179 179 174 172 178 183 183 185 187 186 185 171 169 178 173 170 173 170 173 169 153 153 154 148
257 259 309 48 145 170 201 183 164 163 173 245 283 319 335 266 225 280 296 76 80 76 110 119 119 114 111 113 112 107 103 91 76 78 72 68 71 67 64 62 61 61 60 69 92 113 148 170 174 176 175 168 167 171 171 169 168 176 191 201 196 186 183 182 183 184 181 177 173 172 172 174 176 181 183 185 188 191 197 196 197 204 206 207 193 184 194 192 184 190 193 194 183 168 178 183 166
11 355 351 346 10 80 45 323 245 137 142 188 31 43 282 269 290 321 342 74 81 78 89 97 107 109 107 112 115 114 115 109 96 95 91 83 84 81 76 70 68 68 65 62 61 56 48 79 139 153 155 156 163 170 173 173 172 178 186 189 188 185 182 180 178 181 184 181 172 169 174 181 186 188 187 191 198 206 216 216 211 217 220 220 215 202 205 209 203 208 213 215 206 189 195 203 183
136 137 158 157 105 84 55 323 303 43 127 152 141 161 260 262 321 336 4 62 71 94 102 104 109 108 105 106 109 114 120 124 125 114 105 104 101 92 85 78 74 72 69 65 64 64 62 68 104 136 145 151 157 157 165 173 172 171 172 172 174 174 167 162 154 155 171 176 172 166 166 173 180 181 185 196 205 211 220 226 225 227 227 228 229 217 215 217 214 216 221 225 224 209 206 212 203
Height
762 764 764 766 765 765 766 766 779 778 779 791 780 773 758 738 738 736 733 725 723 721 710 709 709 716 728 742 748 750 753 756 760 765 776 767 756 760 757 760 764 766 769 769 769 770 773 776 778 781 783 784 786 788 789 791 792 794 795 797 799 801 802 804 805 806 808 808 810 810 811 812 813 814 815 816 817 818 819 820 821 821 822 823 823 824 825 826 826 827 827 828 828 828 828 828 828
763 764 763 765 764 768 768 765 783 784 785 796 777 764 751 736 740 740 735 729 727 720 709 709 713 721 728 735 738 746 757 755 751 754 760 758 758 762 758 761 764 767 769 769 770 770 773 776 779 781 783 785 787 789 790 791 793 794 796 798 800 802 803 804 806 807 808 809 810 811 812 812 814 815 815 817 818 819 820 821 821 822 823 823 824 825 826 827 827 828 828 828 828 829 829 829 829
763 764 763 766 765 767 768 768 785 787 790 795 773 753 744 742 744 739 731 724 719 712 711 713 720 726 729 739 742 752 763 756 751 752 757 758 759 763 763 763 765 768 769 770 771 771 773 776 779 781 783 785 787 789 791 792 794 795 797 799 801 802 804 805 806 808 809 810 811 812 813 813 814 815 817 817 818 820 820 822 822 823 824 824 825 826 827 827 828 828 829 829 829 830 830 830 830
763 764 764 766 768 769 772 775 780 785 791 787 769 750 741 743 738 733 726 718 713 711 714 719 732 731 730 748 748 753 763 757 754 754 757 759 759 764 764 765 767 768 769 771 771 772 774 776 779 781 783 785 787 789 790 793 794 796 798 799 801 803 805 806 807 808 809 810 811 812 813 814 815 816 817 818 819 820 821 822 823 824 824 825 826 827 827 828 829 829 829 830 830 830 831 830 830
763 764 764 766 772 771 772 776 773 779 785 774 765 749 740 738 731 728 721 717 713 713 717 722 738 735 733 747 748 757 762 757 755 753 757 760 761 764 765 766 767 768 770 771 772 773 774 777 780 781 784 785 787 789 791 793 794 796 798 800 802 804 806 807 808 809 810 811 812 813 814 815 816 817 818 819 820 820 822 822 823 824 825 826 826 827 828 829 829 830 830 830 831 831 831 831 831
763 763 763 765 768 765 773 781 777 777 769 758 758 748 739 733 728 726 719 716 713 713 716 724 736 738 745 749 748 755 755 755 757 755 758 762 762 763 765 765 767 769 771 772 773 774 775 778 780 783 784 786 788 789 791 793 795 797 799 801 802 804 806 807 809 810 811 812 813 814 815 816 816 817 818 819 820 821 822 823 824 824 825 826 827 828 828 829 830 830 831 831 832 831 832 833 832
764 766 764 767 768 765 779 785 779 776 759 747 749 743 736 729 724 723 722 722 720 716 716 727 731 739 755 751 752 755 749 752 753 755 758 761 763 762 764 765 767 770 772 773 774 775 777 780 781 784 785 787 789 790 792 794 796 797 799 801 803 805 807 808 809 811 812 813 814 814 815 816 817 818 819 820 821 822 823 824 825 825 826 826 827 828 828 829 830 831 831 831 832 832 833 833 833
765 768 764 771 775 772 780 781 775 770 754 740 737 735 731 723 719 721 724 725 727 722 721 729 727 745 761 750 760 760 750 754 752 756 758 760 763 764 765 766 769 772 773 774 774 776 778 781 783 785 787 789 790 792 794 795 797 798 800 801 803 806 807 809 810 811 812 813 814 815 816 817 818 819 820 821 822 823 824 824 825 826 826 827 827 828 828 829 830 831 831 832 832 833 833 833 834
765 768 766 772 779 777 778 777 770 762 749 738 732 729 725 720 718 719 723 724 725 723 725 728 726 749 763 755 765 760 753 757 755 758 759 762 765 767 769 770 773 773 774 775 776 778 780 783 785 787 788 790 791 793 795 796 798 799 801 802 804 806 808 809 811 812 813 814 815 815 817 817 819 819 820 821 822 823 824 825 825 826 827 828 828 828 829 829 830 831 832 832 832 833 833 833 834
765 766 767 772 778 782 782 776 767 755 745 735 728 724 722 720 719 720 723 725 722 726 731 727 729 747 759 761 766 760 757 758 757 761 762 764 766 770 773 776 779 776 774 775 777 778 781 784 785 788 789 790 792 794 795 797 799 800 801 803 805 806 808 810 811 813 813 814 815 816 817 818 819 820 821 822 823 824 824 826 826 827 827 828 828 829 829 830 831 831 832 832 833 833 833 834 834
768 764 765 775 781 786 783 774 763 752 741 733 726 718 716 715 718 721 722 725 721 727 732 730 740 748 754 763 765 760 758 758 758 761 762 763 767 771 775 779 782 779 776 776 779 780 782 785 787 789 790 792 793 794 796 797 799 801 802 803 805 807 808 810 811 813 813 815 816 817 818 819 820 820 822 822 823 824 825 826 826 827 828 828 829 829 829 830 831 831 832 833 833 833 833 834 834
772 767 767 779 782 780 775 770 761 750 742 736 730 718 712 713 719 724 723 726 721 725 728 729 740 742 755 767 763 760 757 758 759 761 763 764 768 771 774 778 781 783 781 779 781 783 784 787 789 791 792 793 794 796 797 798 800 801 803 804 805 807 809 810 812 813 814 815 816 817 819 819 820 821 822 822 823 824 825 826 827 828 828 829 829 829 830 830 831 832 833 833 834 834 834 834 834
769 768 771 778 774 771 769 766 758 751 746 738 731 719 714 717 722 724 723 725 722 728 728 726 732 736 757 766 761 761 759 760 760 762 763 765 769 771 774 778 781 786 788 786 785 786 788 789 790 792 793 794 795 796 797 799 801 801 803 804 806 808 809 811 812 813 814 815 816 817 819 820 820 821 822 822 823 824 825 826 827 828 828 829 829 829 830 830 831 832 833 833 834 834 834 835 835
763 762 768 775 767 766 765 763 756 754 751 735 726 718 715 720 721 720 722 728 726 727 727 723 727 739 758 765 766 764 759 761 760 762 764 766 769 769 773 778 781 786 791 791 789 789 790 791 791 792 793 795 796 797 799 800 801 802 804 805 807 808 809 811 812 813 814 815 816 817 818 819 820 821 821 822 823 824 825 826 827 827 828 829 829 830 830 831 831 832 833 834 834 835 835 835 836
758 758 763 771 769 766 763 760 755 755 750 733 725 718 717 718 716 720 722 730 729 720 724 726 725 739 756 761 765 761 758 761 760 763 765 767 770 769 771 775 781 784 786 789 790 792 791 792 792 792 793 794 796 797 799 800 802 803 804 806 807 809 810 811 812 813 814 815 816 817 818 819 820 821 821 822 823 824 824 826 827 827 828 828 829 830 830 831 831 832 833 834 834 835 835 836 836
752 755 764 771 772 771 763 755 753 756 748 733 726 720 724 722 715 721 719 721 726 718 724 731 727 734 746 747 750 752 756 761 761 764 765 768 772 773 773 774 781 784 786 789 791 792 792 792 792 792 793 794 796 797 799 800 802 803 805 807 808 810 811 811 812 813 814 815 816 817 818 819 820 821 822 822 823 824 824 825 826 827 828 828 829 830 830 831 831 832 833 834 834 835 835 836 836
749 756 768 774 773 772 762 754 752 751 743 732 727 723 730 729 719 719 714 715 725 724 728 732 728 730 737 739 741 747 755 759 760 764 766 770 773 776 777 777 782 785 788 790 790 792 792 792 792 792 793 794 796 797 799 800 802 803 805 806 808 810 811 812 813 813 814 815 816 817 817 818 820 821 822 823 823 824 824 825 826 826 827 828 829 829 830 830 831 832 833 834 834 835 836 836 837
753 761 770 775 772 766 755 749 744 741 740 734 729 726 730 732 727 721 719 723 725 729 734 734 733 733 735 738 742 748 754 758 761 764 768 772 774 777 779 781 785 786 788 790 790 791 791 792 791 792 793 794 796 797 799 800 802 803 805 806 808 810 811 812 813 813 814 815 816 817 818 819 820 821 822 823 823 824 824 825 826 826 827 827 828 829 829 830 830 831 832 833 834 835 836 836 837
755 761 767 769 763 754 744 741 739 737 738 734 729 728 729 732 730 724 729 734 730 738 744 740 743 744 742 744 747 751 754 758 761 764 769 775 780 783 784 786 787 789 789 790 791 791 791 791 791 792 793 794 795 797 798 800 802 803 805 806 807 809 811 812 813 813 813 814 816 816 818 819 820 821 822 823 824 824 824 825 826 826 826 827 827 828 829 830 830 831 832 833 834 835 835 836 837
753 757 766 763 752 748 739 737 738 734 732 733 732 730 729 729 727 727 733 737 734 743 750 747 751 751 748 749 749 751 754 758 761 764 770 775 781 786 789 790 791 792 792 791 792 792 792 791 791 792 793 794 795 796 798 799 801 803 804 806 808 809 811 812 812 813 813 814 815 816 818 819 820 822 823 824 824 824 824 825 825 825 826 826 827 828 829 830 830 831 832 833 834 835 835 836 836
750 753 762 755 747 748 740 736 737 732 730 733 734 732 733 729 726 728 732 739 741 743 744 745 749 749 748 748 748 750 753 757 760 764 768 771 775 780 785 789 794 795 795 794 793 792 792 791 791 792 793 794 795 796 797 799 800 802 804 805 807 809 810 811 811 812 813 814 815 816 818 819 821 822 823 824 824 824 824 824 825 826 827 827 827 828 829 830 830 831 832 833 834 834 835 836 836
749 750 751 747 745 748 739 733 734 731 730 733 734 736 735 729 729 730 731 741 746 739 735 738 743 745 746 746 748 749 752 756 759 763 768 772 775 778 780 783 790 795 796 795 792 792 791 791 791 791 793 793 794 795 796 799 800 802 804 805 807 808 809 810 811 812 813 814 815 816 817 819 821 822 824 823 824 824 823 824 825 826 827 827 828 828 829 830 830 831 832 833 833 834 835 835 836
750 749 744 742 742 742 736 731 731 729 730 734 735 733 731 732 734 729 729 739 740 732 731 736 740 743 746 748 750 752 753 756 759 763 767 773 776 780 783 782 787 794 795 793 791 791 790 790 791 791 792 794 795 796 797 799 800 802 804 806 807 808 809 810 811 811 813 814 815 816 817 819 820 822 823 823 824 824 823 824 826 826 826 827 828 828 829 830 831 831 831 832 833 833 834 835 836
748 749 743 739 737 737 734 731 731 729 731 732 730 731 733 737 737 729 731 737 735 730 731 738 742 744 749 753 756 757 758 759 762 765 768 773 776 780 785 784 788 796 794 792 790 789 790 790 791 792 793 794 795 797 798 799 801 802 804 806 807 808 809 809 810 811 812 813 815 816 817 819 820 822 823 823 824 824 824 825 826 826 827 827 828 828 829 830 831 831 832 832 832 833 834 835 835
744 746 740 737 735 733 731 730 730 729 729 729 730 734 735 733 732 730 735 738 734 732 734 739 744 748 752 757 760 761 762 763 765 769 771 775 776 780 785 786 793 798 793 790 789 788 790 791 792 793 794 795 797 798 799 800 801 803 804 806 807 808 808 809 810 811 812 813 815 816 818 819 820 821 822 823 824 824 824 825 826 827 827 827 827 828 828 829 830 831 832 832 832 833 834 835 835
740 738 736 735 735 732 730 730 729 729 728 728 733 737 734 728 730 733 735 736 735 734 737 742 746 752 756 760 763 763 764 766 769 772 774 776 777 780 783 787 795 795 789 787 788 789 790 792 793 793 795 796 798 799 800 800 801 803 804 805 806 807 808 809 810 811 812 813 814 816 818 819 819 821 822 823 824 824 825 826 827 827 827 827 827 827 828 829 830 831 831 832 832 833 834 835 835
733 733 733 733 734 731 731 731 728 728 728 729 734 739 733 727 733 739 735 733 734 735 740 744 749 756 759 761 764 764 766 768 772 775 776 776 778 783 782 782 787 787 785 786 787 789 790 792 793 794 796 797 799 800 800 801 802 803 804 805 806 807 808 809 810 811 812 813 814 815 817 818 819 820 821 822 823 824 824 825 826 827 827 827 827 827 828 828 829 831 831 832 832 832 833 834 835
731 732 734 734 734 732 731 731 730 730 730 727 730 736 733 729 735 737 733 730 730 735 742 746 751 757 759 762 765 765 767 769 771 774 777 777 777 783 783 778 780 784 787 787 787 788 790 793 794 796 797 798 800 801 801 801 802 803 804 805 806 807 808 808 809 811 812 813 814 816 817 818 819 820 821 822 823 823 824 824 825 826 826 826 826 827 827 828 829 830 831 831 832 832 832 833 833
732 733 740 739 736 737 733 732 730 731 732 725 728 741 739 735 734 729 728 729 729 735 743 747 752 755 758 761 764 767 767 769 770 772 775 775 776 780 779 776 779 790 793 789 787 788 790 792 794 796 798 800 801 802 802 802 803 804 804 805 806 806 807 808 809 810 812 813 814 815 817 818 819 820 821 822 823 823 823 823 824 825 826 826 826 826 827 828 829 830 830 830 830 831 831 831 832
735 735 741 744 746 744 734 732 731 730 731 721 731 753 749 736 729 724 725 727 731 739 743 747 752 754 758 760 763 767 768 769 770 772 774 773 775 777 776 775 783 796 798 790 787 789 790 791 793 796 799 800 801 802 803 803 804 805 805 805 806 806 807 808 809 810 811 812 813 815 816 817 818 818 820 821 822 822 822 823 823 824 825 825 825 825 826 827 828 829 829 829 829 830 830 831 831
738 741 743 746 756 750 732 730 731 731 728 719 732 756 751 736 728 724 724 724 731 740 743 746 751 754 758 761 763 766 767 769 770 771 772 772 775 777 775 776 785 797 798 790 788 790 790 791 793 796 798 800 801 802 803 803 804 805 806 806 806 806 807 807 809 810 811 812 813 814 816 817 817 818 819 820 821 821 821 821 822 823 823 823 824 824 825 826 827 828 828 829 829 829 830 830 831
741 751 754 751 756 749 733 727 726 730 727 719 734 752 747 735 728 724 723 725 730 739 743 744 748 752 757 761 764 766 766 767 768 770 771 771 774 775 774 777 785 793 793 789 789 790 791 792 793 796 799 800 801 802 803 803 804 805 806 806 806 806 807 808 809 810 811 812 813 814 815 816 815 815 816 817 818 819 820 820 821 822 822 822 823 823 824 825 826 827 828 828 829 829 829 828 829
745 751 759 754 752 749 738 725 719 723 726 724 732 744 743 734 727 722 721 725 732 739 742 743 745 750 755 759 762 765 767 767 769 771 771 770 771 771 772 776 782 788 789 788 789 790 792 793 795 797 799 800 801 802 803 803 804 805 806 806 806 806 807 808 809 810 811 813 814 814 815 815 815 814 814 815 817 819 819 819 820 822 822 822 822 823 823 824 825 826 827 828 828 828 828 828 827
754 751 753 750 745 744 740 730 719 718 725 729 731 736 740 734 726 722 719 722 732 740 742 742 745 749 753 757 761 763 765 767 768 769 770 770 771 771 772 776 780 783 786 788 790 791 793 794 796 798 799 800 801 801 802 803 804 805 806 806 806 806 808 809 810 810 811 813 814 815 815 816 816 816 816 817 818 819 819 820 820 821 821 820 821 822 823 824 825 826 826 827 828 828 828 828 828
758 754 751 749 742 739 738 732 721 718 726 732 734 738 738 734 728 724 720 720 730 740 741 742 745 750 754 756 760 763 763 763 763 765 767 768 770 772 774 777 779 781 785 788 790 792 794 795 797 798 798 798 799 801 802 803 805 806 806 807 806 806 807 808 810 810 811 813 813 814 815 816 817 817 818 818 818 819 819 818 819 819 819 819 820 822 823 824 825 826 826 827 828 828 828 828 828
750 749 747 749 745 736 728 724 717 716 727 731 734 739 736 734 731 725 721 719 729 740 742 745 748 750 753 756 759 762 763 763 761 763 765 767 770 772 775 777 778 781 784 787 790 793 794 796 796 797 797 797 798 800 802 804 805 806 806 806 806 807 808 808 810 811 811 812 813 814 814 815 816 816 816 817 818 818 817 816 816 817 818 818 819 821 822 824 825 826 826 827 828 828 828 828 829
743 745 746 745 745 736 721 720 717 713 727 732 731 735 732 733 731 726 722 721 731 741 743 747 750 751 753 755 758 760 762 762 761 764 765 767 770 771 774 776 778 781 784 787 790 793 794 795 795 795 796 796 797 799 802 803 804 805 806 806 806 807 808 809 810 811 812 813 814 815 815 816 816 816 816 817 817 817 817 817 817 817 817 818 819 821 822 823 824 825 826 827 827 827 827 828 828
743 746 748 747 747 740 723 722 720 713 726 735 732 734 734 733 733 728 723 724 734 740 741 745 747 751 753 753 756 758 760 761 762 764 766 768 770 771 774 776 778 781 783 787 789 792 794 794 795 795 796 796 797 799 801 802 803 804 804 805 806 807 808 809 810 811 812 813 815 816 817 817 817 818 818 818 818 818 819 819 819 819 819 819 820 822 823 823 824 824 825 826 827 827 827 827 828
744 746 750 752 747 740 731 726 723 718 728 736 733 736 739 735 732 729 726 726 731 734 735 739 742 747 752 752 754 756 759 761 763 765 766 767 769 771 774 776 778 781 783 786 788 791 792 793 795 795 796 796 797 799 800 801 803 803 804 804 806 807 809 810 811 812 813 814 815 817 818 819 819 819 820 820 820 820 821 821 821 821 822 821 821 822 823 823 824 824 824 825 826 827 827 827 828
745 746 751 754 745 745 746 736 729 727 731 736 735 738 739 735 732 730 727 726 727 727 728 732 735 741 745 747 749 753 757 761 763 764 765 766 769 770 773 775 777 780 782 784 787 789 791 793 794 795 796 797 798 799 800 801 802 803 804 805 806 807 809 811 811 813 814 815 817 818 819 819 820 820 820 821 822 822 822 822 822 822 822 822 822 823 823 823 824 824 824 825 825 825 826 827 827
747 744 748 749 742 745 747 738 733 733 733 733 737 747 744 736 738 736 728 727 728 726 726 728 729 733 740 744 746 749 753 757 761 764 765 766 768 770 772 774 776 779 781 783 785 787 790 792 794 795 796 797 798 799 799 800 801 802 803 805 806 807 809 810 812 814 815 816 817 818 819 820 820 820 821 822 822 823 823 823 823 823 823 823 823 823 823 824 824 824 824 824 824 825 825 826 827
750 744 741 740 738 741 741 737 738 747 750 738 740 765 763 740 739 740 731 730 731 728 726 727 728 731 738 743 746 748 751 754 758 760 763 765 767 770 772 773 775 777 779 782 784 786 788 791 792 794 795 796 797 798 798 799 800 801 802 803 805 806 808 810 811 813 814 816 817 818 819 820 820 821 821 822 823 823 823 823 823 823 823 823 822 823 823 824 824 824 824 824 824 824 825 826 827
756 744 735 735 735 738 740 739 746 758 760 742 738 766 773 753 743 740 733 733 734 730 728 729 730 733 738 742 745 748 750 753 755 757 759 762 765 768 771 772 773 775 778 781 783 785 787 789 791 792 794 795 796 797 797 798 799 800 801 802 804 805 806 808 810 812 813 815 816 818 819 820 821 821 822 822 823 823 823 823 823 823 823 823 823 823 823 824 824 824 824 824 824 824 824 825 826
754 738 731 734 735 738 739 739 747 751 749 745 741 753 769 766 750 736 733 737 737 733 731 731 730 732 737 741 742 745 748 750 753 756 758 761 763 765 768 770 771 773 777 779 782 784 785 787 789 791 794 795 796 796 797 797 798 799 801 802 804 804 805 807 809 811 813 814 816 817 819 820 821 821 822 822 823 823 823 823 823 823 824 824 823 823 824 824 824 824 824 824 824 824 824 824 825
743 730 730 733 734 738 738 741 748 745 749 761 753 748 768 773 750 735 736 739 741 737 734 733 732 734 738 741 743 745 749 751 753 756 758 760 762 764 765 768 770 773 775 777 779 781 783 785 788 790 794 796 797 797 797 797 798 798 800 802 803 804 805 806 808 810 812 813 815 817 818 819 820 821 822 822 823 823 823 824 823 824 824 824 824 824 824 824 824 824 825 825 825 824 824 824 825
732 726 730 732 733 736 739 745 749 749 761 772 759 751 771 775 752 742 744 743 742 739 735 734 737 739 740 742 745 746 748 750 751 753 755 757 759 762 764 767 769 772 774 776 778 780 782 784 785 788 793 796 797 798 797 797 798 798 799 801 801 803 803 805 807 809 811 812 814 816 817 819 820 821 821 822 822 823 823 824 824 824 825 825 825 825 825 825 825 825 825 826 825 825 825 826 826
725 727 733 736 738 738 742 746 747 760 774 771 757 751 766 777 762 747 746 742 738 737 735 736 739 741 741 742 745 746 747 749 751 752 754 755 758 760 763 765 768 771 772 774 777 779 782 783 781 785 793 797 797 798 798 797 798 798 798 800 800 801 802 804 806 808 810 811 813 814 816 818 819 820 821 822 823 823 824 824 825 825 826 826 826 826 826 827 827 827 827 826 826 826 827 827 827
725 733 740 748 752 749 754 755 755 774 783 767 756 753 763 778 769 748 741 735 732 734 735 736 740 742 743 744 745 746 749 751 752 755 756 758 760 762 763 765 767 770 771 773 775 777 780 783 781 782 790 796 797 798 798 797 797 797 798 799 800 800 801 802 804 806 808 809 811 813 815 817 819 820 821 822 823 824 824 825 825 826 827 827 827 827 827 828 828 828 828 828 828 828 828 828 828
729 736 745 761 771 771 775 775 771 780 779 762 757 761 768 774 761 745 738 731 730 732 732 736 740 741 743 744 745 747 750 752 754 756 758 760 762 763 764 765 767 769 770 771 774 776 779 783 783 783 788 795 796 797 798 797 798 798 798 799 799 800 800 801 803 805 807 808 810 812 814 817 818 820 821 822 823 824 825 826 826 827 827 828 828 828 829 829 829 829 829 829 829 829 829 829 830
736 740 749 766 778 786 792 786 781 783 777 760 755 763 774 771 755 743 737 733 733 733 733 736 739 740 742 744 747 750 752 754 755 756 758 760 762 763 763 764 766 768 769 770 772 776 779 783 786 787 789 794 796 796 798 798 798 799 799 799 799 800 800 802 803 805 806 808 809 811 814 816 818 819 821 822 823 824 825 826 827 827 828 829 829 830 830 830 830 830 830 830 830 830 830 830 831
736 733 740 756 765 777 789 787 787 788 780 766 761 769 779 774 757 742 736 734 735 736 736 736 738 741 744 746 749 752 754 756 757 758 759 761 761 762 762 763 765 767 769 770 772 775 778 781 786 788 789 795 798 797 798 799 799 801 801 800 800 800 801 802 804 805 806 807 809 811 813 815 817 819 820 822 823 824 825 826 827 828 829 829 830 831 831 831 831 831 831 832 832 832 832 832 832
737 728 737 750 749 756 771 774 775 778 779 774 769 770 769 762 751 739 734 735 736 739 739 739 744 746 748 752 754 755 757 758 760 761 762 762 762 763 762 761 763 765 768 771 772 774 777 780 785 787 788 795 800 799 799 801 802 803 802 801 800 800 801 803 804 806 807 808 809 810 812 814 816 818 820 822 823 824 825 826 827 828 829 830 830 831 832 832 832 833 833 833 833 833 833 833 833
738 737 743 741 733 741 761 770 765 769 783 781 769 768 764 759 753 741 736 738 739 740 741 743 749 750 752 757 758 759 761 762 763 764 765 765 764 764 764 763 764 766 769 771 772 774 777 779 782 784 788 795 801 802 804 806 805 805 804 804 802 801 801 803 804 806 808 808 809 810 812 814 815 817 819 821 823 824 825 826 827 828 829 830 831 831 832 833 833 833 834 834 834 835 835 835 835
738 746 741 732 731 737 752 770 773 777 789 780 766 768 770 770 764 748 740 743 743 743 743 747 751 752 756 760 761 763 764 764 766 767 767 767 766 766 766 766 767 769 770 772 773 774 776 779 780 783 791 798 801 801 802 803 803 804 806 806 804 802 802 803 804 806 808 809 810 811 812 813 814 816 818 820 822 823 825 826 827 828 829 830 831 831 832 833 833 834 834 834 835 835 835 835 835
730 736 730 734 752 756 756 769 779 784 789 782 769 765 769 774 770 757 750 748 747 746 746 750 753 755 758 761 763 765 766 767 768 768 769 769 769 769 768 768 768 769 770 772 773 775 777 780 781 785 793 797 797 796 796 796 797 799 804 806 805 804 803 803 804 806 807 808 810 811 812 813 814 816 818 820 821 823 825 826 827 828 830 830 831 832 832 833 834 834 834 835 835 835 835 836 836
726 730 729 734 748 757 757 760 767 776 784 784 775 772 775 773 766 762 757 751 751 752 750 752 755 756 759 761 764 766 768 770 770 770 771 770 770 770 770 770 770 770 771 771 772 774 775 778 779 783 789 790 790 791 791 793 794 795 799 803 804 804 804 804 804 805 807 808 809 811 812 813 814 815 817 819 821 823 825 826 827 828 830 831 832 832 833 834 834 835 835 835 836 836 836 836 836
736 741 744 744 745 752 758 758 757 764 777 784 784 788 785 768 759 760 756 750 752 753 753 757 758 758 760 761 764 767 768 770 771 771 771 771 772 772 771 772 771 771 772 772 773 773 774 775 776 778 781 783 786 788 788 790 792 794 796 799 802 803 804 804 804 805 806 808 809 811 812 813 814 815 816 818 820 822 824 826 827 828 829 830 831 832 833 834 834 835 836 836 836 836 836 836 836
736 741 745 748 749 757 773 780 768 760 768 777 784 792 784 762 755 756 752 749 751 752 756 761 761 761 762 762 764 766 768 771 771 772 772 772 772 772 772 773 772 773 773 774 774 774 775 776 777 778 779 780 784 787 790 792 793 795 796 797 799 801 803 803 804 805 806 808 810 811 812 813 814 815 816 816 818 820 822 824 826 827 828 829 830 831 832 833 834 835 836 836 836 837 837 837 836